[[{"header":{"parameterUnit":"m.s-1","parameterCategory":1,"la1":30.2991,"la2":30.254,"lo1":-89.0895,"lo2":-89.0444,"dy":0.0017,"dx":0.0017,"nx":28,"ny":28,"refTime":"2023-09-29T09:00:00:Z","depth":0,"parameterNumber":2,"parameterNumberName":"U-component_of_WINDS"},"data":[0,0,0,0,0,0,0,0,0,0,0,0,0,0,0,0,0,0,0,0,0,0,0,0,0,0,0,0,0,0,0,0,0,0,0,0,0,0,0,0,0,0,0,0,0,0,0,0,0,0,0,0,0,0,0,0,0,0,-1.7559,-1.756,0,-1.7611,-1.7612,-1.7612,-1.7548,-1.7546,-1.7543,-1.7541,-1.7597,-1.76,-1.7604,0,0,0,0,0,0,0,0,0,0,0,0,0,-1.7406,-1.7409,-1.7559,-1.756,-1.756,-1.7611,-1.7612,-1.7613,-1.7548,-1.7546,-1.7543,-1.754,-1.7596,-1.76,-1.7604,0,0,0,0,0,0,0,0,0,0,0,0,0,-1.7467,-1.741,-1.7559,-1.7534,-1.7533,-1.7611,-1.7612,-1.7613,-1.7549,-1.7545,-1.7542,-1.7539,-1.7594,-1.76,-1.7605,-1.7711,0,0,-1.7622,-1.7624,0,0,0,0,0,0,0,0,-1.7464,-1.7473,-1.7537,-1.7536,-1.7535,-1.7569,-1.7578,-1.7646,-1.755,-1.7543,-1.7541,-1.7537,-1.7591,-1.7596,-1.7614,-1.7713,-1.7716,-1.7623,-1.7626,-1.7628,-1.763,0,0,0,0,0,0,0,-1.7459,-1.747,-1.758,-1.7538,-1.7537,-1.7522,-1.7526,-1.7591,-1.7586,-1.7543,-1.7539,-1.7546,-1.7589,-1.7609,-1.7615,-1.7716,-1.7622,-1.7627,-1.7631,-1.7633,-1.7906,-1.791,0,0,0,0,0,0,-1.7458,-1.7467,-1.7578,-1.7581,-1.7489,-1.7527,-1.7532,-1.7562,-1.7585,-1.7586,-1.7549,-1.7542,-1.7601,-1.7609,-1.7617,-1.7743,-1.7628,-1.7633,-1.7637,-1.7902,-1.7907,-1.7911,0,0,0,0,0,0,-1.7455,-1.7468,-1.7576,-1.7523,-1.7535,-1.7534,-1.7567,-1.7565,-1.7584,-1.7589,-1.7588,-1.7569,-1.7599,-1.7609,-1.7688,-1.7744,-1.7636,-1.7641,-1.7897,-1.7903,-1.7909,-1.7995,0,0,0,0,0,0,-1.7451,-1.7468,-1.7507,-1.7524,-1.7539,-1.7646,-1.7571,-1.7568,-1.7594,-1.7586,-1.7609,-1.7609,-1.7597,-1.768,-1.7693,-1.7749,-1.7645,-1.7892,-1.79,-1.7907,-1.7988,-1.8004,-1.8017,0,0,0,0,0,-1.7445,-1.753,-1.751,-1.7523,-1.7588,-1.7649,-1.7658,-1.7641,-1.7598,-1.7639,-1.7642,-1.7608,-1.7735,-1.7688,-1.7703,-1.7762,-1.7889,-1.7898,-1.7906,-1.7981,-1.8,-1.8017,0,0,0,0,0,0,-1.7521,-1.7532,-1.7509,-1.7602,-1.7625,-1.7638,-1.7689,-1.7662,-1.7698,-1.769,-1.7668,-1.7674,-1.7758,-1.7768,-1.7716,-1.7866,-1.7805,-1.7817,-1.7857,-1.7875,-1.789,-1.7887,-1.765,0,0,0,0,0,-1.7548,-1.7596,-1.7603,-1.7684,-1.7697,-1.7691,-1.7717,-1.7702,-1.7726,-1.7735,-1.7744,-1.7769,-1.7815,-1.7845,-1.7887,-1.7988,-1.7993,-1.8036,-1.805,-1.8062,-1.8074,-1.8129,-1.8149,-1.794,-1.794,-1.794,0,0,-1.7605,-1.7617,-1.7649,-1.7699,-1.7716,-1.7767,-1.77,-1.7756,-1.7795,-1.7744,-1.7819,-1.7827,-1.7853,-1.7944,-1.7984,-1.7954,-1.8132,-1.8074,-1.8083,-1.8088,-1.814,-1.816,-1.8177,-1.7946,-1.7945,-1.7944,0,0,-1.7735,-1.7748,-1.7817,-1.7835,-1.786,-1.7855,-1.7872,-1.789,-1.7892,-1.7967,-1.7931,-1.7976,-1.8054,-1.8075,-1.8096,-1.8233,-1.8204,-1.8248,-1.8326,-1.838,-1.8396,-1.8411,-1.8461,-1.848,-1.8259,-1.8259,-1.8259,0,-1.7803,-1.7878,-1.7857,-1.7916,-1.794,-1.7896,-1.7966,-1.7984,-1.8023,-1.8041,-1.8006,-1.8104,-1.8118,-1.8214,-1.8247,-1.8265,-1.8284,-1.8246,-1.8395,-1.841,-1.8423,-1.8471,-1.849,-1.8264,-1.8263,-1.8263,-1.8262,0,-1.7961,-1.8013,-1.8066,-1.8103,-1.8133,-1.8198,-1.8187,-1.822,-1.8202,-1.8202,-1.8279,-1.8295,-1.834,-1.8361,-1.8345,-1.8455,-1.8435,-1.8398,-1.8337,-1.8448,-1.8493,-1.8511,-1.8272,-1.827,-1.8268,-1.8267,0,0,-1.8141,-1.8165,-1.8185,-1.8202,-1.8226,-1.8267,-1.833,-1.8373,-1.8402,-1.8429,-1.8483,-1.855,-1.8516,-1.8539,-1.8525,-1.8572,-1.8682,-1.8529,-1.853,-1.8559,-1.8806,-1.8835,-1.8856,-1.8662,-1.8665,-1.8668,-1.8804,0,-1.8273,-1.8381,-1.8364,-1.8469,-1.8518,-1.8476,-1.8531,-1.8553,-1.8554,-1.8596,-1.8597,-1.8646,-1.8596,-1.861,-1.8655,-1.8659,-1.8732,-1.8649,-1.8713,-1.8715,-1.8709,-1.8879,-1.891,-1.9038,-1.8821,-1.8824,-1.8826,0,-1.8441,-1.8474,-1.8584,-1.8601,-1.8621,-1.867,-1.8709,-1.8749,-1.8773,-1.877,-1.8797,-1.8773,-1.8837,-1.8774,-1.8863,-1.8807,-1.8832,-1.8838,-1.8842,-1.8849,-1.8779,-1.8892,-1.9078,-1.9098,-1.8853,-1.8851,-1.8849,0,-1.8563,-1.8635,-1.871,-1.8726,-1.8747,-1.8783,-1.8794,-1.8813,-1.8841,-1.8874,-1.8892,-1.8933,-1.8956,-1.8988,-1.8977,-1.8932,-1.9069,-1.9004,-1.907,-1.9071,-1.9102,-1.9101,-1.9296,-1.9116,-1.9115,-1.9115,-1.9114,0,-1.8713,-1.8782,-1.8766,-1.8813,-1.8889,-1.8869,-1.8945,-1.8951,-1.8969,-1.9017,-1.8983,-1.9029,-1.901,-1.9055,-1.9047,-1.9122,-1.9132,-1.9133,-1.913,-1.9137,-1.9137,-1.9155,-1.9146,-1.912,-1.9119,-1.9118,-1.9117,0,-1.8863,-1.8855,-1.8935,-1.8948,-1.8953,-1.9009,-1.902,-1.9065,-1.9062,-1.9123,-1.9136,-1.9134,-1.9185,-1.9176,-1.9233,-1.9227,-1.9322,-1.9308,-1.9314,-1.9312,-1.9378,-1.9373,-1.9593,-1.9622,-1.9421,-1.9423,-1.9425,0,-1.896,-1.9013,-1.9031,-1.906,-1.9073,-1.9121,-1.9148,-1.9129,-1.916,-1.919,-1.9231,-1.9279,-1.9316,-1.94,-1.9404,-1.9447,-1.9435,-1.9509,-1.9441,-1.9447,-1.9438,-1.9436,-1.9441,-1.9523,-1.9525,-1.9527,-1.9528,0,-1.9134,-1.9127,-1.9167,-1.9206,-1.924,-1.927,-1.9296,-1.9322,-1.9306,-1.9342,-1.9393,-1.9422,-1.948,-1.9528,-1.9569,-1.9581,-1.9553,-1.9549,-1.9567,-1.9576,-1.9578,-1.9579,-1.9353,-1.9545,-1.9543,-1.9542,-1.9541,-1.954,-1.9262,-1.9307,-1.9327,-1.9373,-1.9391,-1.9417,-1.9459,-1.9462,-1.9504,-1.9549,-1.9535,-1.9594,-1.9617,-1.9668,-1.9684,-1.9731,-1.9704,-1.9729,-1.9736,-1.9743,-1.9752,-1.9569,-1.9738,-1.9737,-1.9737,-1.9737,-1.9736,0,-1.9435,-1.9445,-1.9488,-1.9526,-1.9563,-1.9531,-1.9559,-1.9593,-1.9644,-1.9667,-1.9704,-1.9764,-1.9811,-1.9818,-1.9862,-1.9898,-1.9887,-1.9911,-1.9909,-1.9913,-1.9773,-1.9753,-1.9919,-1.9919,-1.9919,-1.9919,-1.9919,-1.9919,-1.953,-1.9604,-1.96,-1.9683,-1.9693,-1.975,-1.9769,-1.9793,-1.9811,-1.9879,-1.9917,-1.9921,-1.9938,-1.9983,-2.0025,-2.0026,-2.0045,-2.0074,-2.0071,-1.994,-1.9922,-1.9905,-1.9887,-2.0078,-2.0078,-2.0207,-2.0208,-2.0209]},{"header":{"parameterUnit":"m.s-1","parameterCategory":1,"la1":30.2991,"la2":30.254,"lo1":-89.0895,"lo2":-89.0444,"dy":0.0017,"dx":0.0017,"nx":28,"ny":28,"refTime":"2023-09-29T09:00:00:Z","depth":0,"parameterNumber":3,"parameterNumberName":"V-component_of_WINDS"},"data":[0,0,0,0,0,0,0,0,0,0,0,0,0,0,0,0,0,0,0,0,0,0,0,0,0,0,0,0,0,0,0,0,0,0,0,0,0,0,0,0,0,0,0,0,0,0,0,0,0,0,0,0,0,0,0,0,0,0,0.9186,0.9186,0,0.9209,0.9209,0.9209,0.9213,0.9213,0.9213,0.9212,0.9236,0.9236,0.9237,0,0,0,0,0,0,0,0,0,0,0,0,0,0.9144,0.9144,0.9186,0.9186,0.9186,0.9209,0.9209,0.9209,0.9213,0.9213,0.9213,0.9212,0.9235,0.9236,0.9237,0,0,0,0,0,0,0,0,0,0,0,0,0,0.9164,0.9145,0.9185,0.9191,0.9191,0.9209,0.9209,0.921,0.9213,0.9213,0.9212,0.9212,0.9235,0.9236,0.9237,0.9251,0,0,0.9241,0.9242,0,0,0,0,0,0,0,0,0.9163,0.9165,0.919,0.919,0.9191,0.9208,0.9203,0.9223,0.9213,0.9205,0.9212,0.9212,0.9227,0.9228,0.9233,0.9252,0.9253,0.9241,0.9242,0.9242,0.9243,0,0,0,0,0,0,0,0.9161,0.9164,0.9195,0.919,0.9191,0.9192,0.9194,0.9207,0.9217,0.9206,0.9206,0.9209,0.9227,0.9232,0.9234,0.9253,0.9241,0.9242,0.9243,0.9243,0.9285,0.9285,0,0,0,0,0,0,0.9159,0.9163,0.9194,0.9195,0.9176,0.9193,0.9196,0.9203,0.9217,0.9219,0.9209,0.9209,0.923,0.9233,0.9235,0.9252,0.9242,0.9244,0.9244,0.9284,0.9285,0.9285,0,0,0,0,0,0,0.9158,0.9162,0.9193,0.9179,0.9184,0.9194,0.9202,0.9203,0.9209,0.9219,0.9221,0.9212,0.923,0.9233,0.9247,0.9253,0.9244,0.9245,0.9284,0.9284,0.9285,0.9286,0,0,0,0,0,0,0.9157,0.9161,0.9167,0.918,0.9184,0.9205,0.9202,0.9204,0.9211,0.9211,0.9223,0.9225,0.923,0.9245,0.9248,0.9254,0.9246,0.9283,0.9284,0.9285,0.9285,0.9286,0.9287,0,0,0,0,0,0.9155,0.9166,0.9167,0.9171,0.9191,0.9205,0.9208,0.9214,0.9211,0.9217,0.9224,0.9225,0.9252,0.9247,0.925,0.9256,0.9283,0.9284,0.9285,0.9285,0.9286,0.9287,0,0,0,0,0,0,0.9153,0.9168,0.9169,0.9184,0.9193,0.9206,0.9213,0.9215,0.9225,0.9225,0.9231,0.9234,0.9247,0.9253,0.9248,0.927,0.9267,0.9269,0.9266,0.9267,0.9268,0.9266,0.9247,0,0,0,0,0,0.9154,0.9165,0.9177,0.9189,0.9194,0.9202,0.9209,0.9213,0.9223,0.9226,0.9234,0.9244,0.9254,0.9261,0.9272,0.9286,0.9289,0.9292,0.9293,0.9294,0.9295,0.9303,0.9305,0.9288,0.9288,0.9288,0,0,0.9157,0.9166,0.9172,0.9189,0.9196,0.9207,0.9206,0.9217,0.9225,0.9228,0.9242,0.9248,0.9259,0.9273,0.928,0.9279,0.9301,0.9295,0.9296,0.9296,0.9304,0.9306,0.9307,0.9288,0.9288,0.9288,0,0,0.9167,0.9175,0.9186,0.9194,0.9206,0.9212,0.9215,0.9227,0.9231,0.9245,0.9248,0.9257,0.9276,0.9283,0.929,0.9303,0.9304,0.9306,0.9311,0.9319,0.932,0.9322,0.9326,0.9328,0.9308,0.9308,0.9308,0,0.9169,0.9185,0.9192,0.9203,0.921,0.9214,0.9225,0.9232,0.9247,0.9251,0.925,0.9273,0.928,0.9297,0.93,0.9305,0.9308,0.9305,0.932,0.9321,0.9322,0.9327,0.9328,0.9308,0.9308,0.9308,0.9308,0,0.9186,0.9198,0.9205,0.9219,0.9227,0.9238,0.9246,0.9254,0.9257,0.9263,0.9277,0.9287,0.9299,0.9303,0.9306,0.932,0.9319,0.9318,0.9315,0.9324,0.9328,0.933,0.9308,0.9308,0.9308,0.9308,0,0,0.9195,0.9213,0.9216,0.9223,0.9236,0.9245,0.9256,0.9269,0.9275,0.9285,0.9294,0.931,0.931,0.9317,0.9321,0.9328,0.9338,0.9327,0.9327,0.9328,0.9354,0.9354,0.9356,0.9339,0.9339,0.934,0.9353,0,0.9207,0.9227,0.9234,0.9251,0.9261,0.9265,0.9275,0.9284,0.929,0.93,0.9307,0.9318,0.9317,0.9321,0.9328,0.9335,0.9343,0.9334,0.9348,0.9348,0.9345,0.9358,0.9358,0.937,0.9354,0.9355,0.9355,0,0.9223,0.9234,0.9252,0.9264,0.9269,0.9278,0.929,0.9299,0.931,0.9314,0.9322,0.9325,0.9337,0.9334,0.935,0.9344,0.935,0.9354,0.9355,0.9356,0.9352,0.9359,0.9373,0.9375,0.9358,0.9357,0.9357,0,0.9228,0.9246,0.926,0.9265,0.928,0.9286,0.9293,0.9303,0.931,0.9321,0.9326,0.9337,0.9344,0.9352,0.9359,0.9356,0.9375,0.9372,0.9378,0.9378,0.9382,0.9381,0.9397,0.9386,0.9386,0.9386,0.9386,0,0.924,0.9251,0.9262,0.927,0.9282,0.929,0.9302,0.9308,0.9318,0.9327,0.9331,0.934,0.9348,0.9358,0.9364,0.9376,0.9379,0.9382,0.9384,0.9382,0.9381,0.9386,0.9385,0.9386,0.9386,0.9386,0.9386,0,0.9247,0.9255,0.9269,0.9283,0.9286,0.9295,0.9306,0.9314,0.932,0.9332,0.9335,0.9345,0.9357,0.9365,0.938,0.9383,0.9397,0.9398,0.9394,0.9394,0.94,0.9399,0.9419,0.9421,0.9409,0.9409,0.9409,0,0.9254,0.9262,0.9276,0.9283,0.929,0.9301,0.9308,0.9316,0.9323,0.9336,0.9343,0.9355,0.9365,0.9384,0.9392,0.9403,0.9405,0.9411,0.9406,0.9405,0.9405,0.9404,0.9405,0.9411,0.9411,0.9411,0.9412,0,0.9265,0.9269,0.928,0.9292,0.9301,0.931,0.932,0.9326,0.9335,0.9343,0.9355,0.9363,0.9379,0.9391,0.9403,0.941,0.9412,0.9413,0.9415,0.9413,0.941,0.9412,0.9395,0.9412,0.9412,0.9412,0.9412,0.9412,0.9273,0.928,0.9292,0.9303,0.9312,0.9321,0.9329,0.9337,0.9347,0.9361,0.9364,0.9377,0.9388,0.9405,0.9412,0.9422,0.9421,0.9424,0.9425,0.9425,0.9425,0.9409,0.9424,0.9424,0.9424,0.9424,0.9424,0,0.9285,0.9292,0.9303,0.9317,0.9326,0.9328,0.9339,0.9346,0.9358,0.9368,0.9378,0.9392,0.9403,0.9413,0.9425,0.9431,0.9433,0.9434,0.9434,0.9435,0.9425,0.9422,0.9433,0.9433,0.9433,0.9433,0.9433,0.9433,0.9292,0.9305,0.931,0.9328,0.9335,0.9348,0.9354,0.9363,0.9371,0.9386,0.9396,0.9402,0.9412,0.9425,0.9436,0.9438,0.9442,0.9444,0.9446,0.9437,0.9436,0.9435,0.9432,0.9445,0.9445,0.9455,0.9456,0.9456]}]]